Weather in New York

United States     40°42′57″N   74°00′10″W
temp.,
°C
wind,
m/s
gust,
m/s
humid.,
%
clouds,
%
prec.,
mm/h
press.,
hPa
HPBL,
m
17 september, fri
fri1723:00+23ene4676100 0.0 1024632
02:00+22ene4782100 0.0 1023544
05:00+21ene5883100 0.0 1023523
08:00+21ne5784100 0.0 1024599
11:00+23ene577792 0.0 1024722
14:00+26e456084 0.1 10221184
17:00+26e355991 0.2 1020957
20:00+24ene25680 0.3 1020431
18 september, sat
sat1823:00+23ne36800 0.0 1019505
02:00+21nne36869 0.0 1018412
05:00+20nne36840 0.0 1018321
08:00+21n34790 0.0 1018287
11:00+26nnw23550 0.0 1018979
14:00+30nnw244326 0.0 10161724
17:00+29nw554847 0.0 10141193
20:00+27wnw47540 0.0 1016675
19 september, sun
sun1923:00+25nnw49600 0.0 1017434
02:00+23n36684 0.0 1018385
05:00+21n36744 0.0 1019359
08:00+20n24694 0.0 1020349
11:00+25nne34334 0.0 10221036
14:00+27nne44230 0.0 10211265
17:00+27nne43230 0.0 10201310
20:00+24ne35355 0.0 1022368
20 september, mon
mon2023:00+22ne13414 0.0 1024277
02:00+20nne23450 0.0 1025155
05:00+19nne23490 0.0 1025163
08:00+19nne22515 0.0 1026226
11:00+24sse2349100 0.0 10271085
14:00+24sse5448100 0.0 10271256
17:00+23sse445198 0.0 10261061
20:00+21sse566132 0.0 1027772
21 september, tue
tue2123:00+21sse4664100 0.0 1027768
02:00+20s3565100 0.0 1027752
05:00+20sse3566100 0.0 1026555
08:00+20sse3464100 0.0 1027888
11:00+23sse4554100 0.0 10271172
14:00+23sse5549100 0.0 10251127
17:00+22sse5655100 0.0 1024934
20:00+21sse5770100 0.0 1023854